Regional Weather Roundup
Issued by NWS Charleston, WV

Home | Current Version | Previous Version | Graphics & Text | Print | Product List | Glossary On
Versions: 1 2 3 4 5 6 7 8 9 10 11 12 13 14 15 16 17 18 19 20 21 22 23 24 25 26 27 28 29 30 31 32 33 34 35 36 37 38 39 40 41 42 43 44 45 46 47 48 49 50
000
ASUS41 KRLX 201010
RWRRLX
West Virginia Regional Weather Roundup
National Weather Service Charleston WV
500 AM EST THU NOV 20 2014

Note: "fair" indicates few or no clouds below 12,000 feet with no
significant weather and/or obstructions to visibility.

WVZ003-201100-
Northern Panhandle of West Virginia

CITY           SKY/WX    TMP DP  RH WIND       PRES   REMARKS
WHEELING       MOCLDY    29  16  58 W16       29.94F
$$

WVZ009-201100-
Northwest West Virginia

CITY           SKY/WX    TMP DP  RH WIND       PRES   REMARKS
PARKERSBURG    CLOUDY    32  20  61 NW7       30.03S
$$

WVZ006-201100-
Western West Virginia

CITY           SKY/WX    TMP DP  RH WIND       PRES   REMARKS
HUNTINGTON     CLOUDY    36  25  64 W9        30.04S
$$

WVZ015-201100-
West Central West Virginia

CITY           SKY/WX    TMP DP  RH WIND       PRES   REMARKS
CHARLESTON     CLOUDY    40  24  53 NW10G20   30.01S
$$

WVZ022-031-201100-
North Central West Virginia

CITY           SKY/WX    TMP DP  RH WIND       PRES   REMARKS
CLARKSBURG     LGT SNOW  35  29  78 W10       29.96R
MORGANTOWN     LGT SNOW  35  27  72 W7        29.94S
$$

WVZ025-035-042-045-201100-
Southern West Virginia

CITY           SKY/WX    TMP DP  RH WIND       PRES   REMARKS
BECKLEY        CLOUDY    35  20  54 SW10      29.97F
LOGAN          CLOUDY    41  25  52 SW13G21   30.01R
BLUEFIELD      CLOUDY    36  20  52 W14G23    29.99F
LEWISBURG      MOCLDY    37  22  56 SW5       29.97F
$$

WVZ047-201100-
Northern Mountains of West Virginia

CITY           SKY/WX    TMP DP  RH WIND       PRES   REMARKS
ELKINS         CLOUDY    37  24  59 SW10      29.92F
$$

WVZ052-201100-
Eastern Panhandle of West Virginia

CITY           SKY/WX    TMP DP  RH WIND       PRES   REMARKS
MARTINSBURG    CLOUDY    33  13  43 S6        29.93F
PETERSBURG     PTCLDY    44  21  40 SW9G23    29.91F
$$



USA.gov is the U.S. government's official web portal to all federal, state and local government web resources and services.